K9UO Weather Reports


Display with metric or nautical units.
time (UTC)temp
F
wind
direction
speed
MPH
gust
MPH
rain 1hr
in
rain 24hr
in
rain mn
in
humidity
%
barometer
mb
20260509001534 55 360 2.0 6.0 0.00 0.04 0.04 1 1008.9
20260509000037 55 211 1.0 4.0 0.00 0.04 0.04 1 1008.9
20260508234534 54 210 1.0 3.0 0.01 0.04 0.04 1 1008.8
20260508233020 54 360 1.0 3.0 0.02 0.04 0.04 1 1008.8
20260508231516 54 209 2.0 6.0 0.02 0.04 0.04 1 1008.8
20260508230012 54 214 4.0 7.0 0.02 0.04 0.04 1 1008.8
20260508224507 54 360 1.0 6.0 0.01 0.03 0.03 1 1009.2
20260508223007 53 232 2.0 3.0 0.00 0.02 0.02 1 1009.2
20260508221506 54 331 0.0 4.0 0.01 0.02 0.02 1 1009.1
20260508220001 53 10 3.0 6.0 0.01 0.02 0.02 1 1009.0
20260508214608 54 5 1.0 6.0 0.02 0.02 0.02 1 1009.1
20260508213053 55 259 2.0 6.0 0.02 0.02 0.02 1 1009.4
20260508211549 57 13 2.0 5.0 0.01 0.01 0.01 1 1009.3
20260508210045 58 19 1.0 6.0 0.01 0.01 0.01 1 1009.2
20260508204542 59 360 3.0 8.0 0.00 0.00 0.00 20 1009.4
20260508203039 59 254 3.0 8.0 0.00 0.00 0.00 26 1009.3
20260508201637 60 306 1.0 6.0 0.00 0.00 0.00 29 1009.4
20260508200037 60 288 3.0 10.0 0.00 0.00 0.00 43 1009.5
20260508194607 60 360 5.0 12.0 0.00 0.00 0.00 49 1009.4
20260508193036 62 217 9.0 13.0 0.00 0.00 0.00 55 1009.4
20260508191535 63 194 9.0 19.0 0.00 0.00 0.00 55 1009.2
20260508190033 65 360 10.0 16.0 0.00 0.00 0.00 52 1009.3
20260508184534 65 360 6.0 12.0 0.00 0.00 0.00 51 1009.5
20260508183030 66 192 11.0 16.0 0.00 0.00 0.00 50 1009.7
20260508181540 65 360 10.0 21.0 0.00 0.00 0.00 50 1009.7
20260508180026 65 360 8.0 15.0 0.00 0.00 0.00 51 1009.9
20260508174522 64 219 9.0 18.0 0.00 0.00 0.00 51 1010.2
20260508173033 63 221 6.0 18.0 0.00 0.00 0.00 52 1010.5
20260508171524 63 216 9.0 14.0 0.00 0.00 0.00 52 1010.7
20260508170014 63 360 8.0 15.0 0.00 0.00 0.00 51 1011.0
20260508164516 62 239 5.0 10.0 0.00 0.00 0.00 53 1011.2
20260508163010 62 360 6.0 12.0 0.00 0.00 0.00 53 1011.6
20260508161504 61 242 7.0 13.0 0.00 0.00 0.00 53 1012.1
20260508160002 60 360 3.0 9.0 0.00 0.00 0.00 53 1012.2
20260508154601 60 296 7.0 12.0 0.00 0.00 0.00 53 1012.5
20260508153057 59 236 6.0 11.0 0.00 0.00 0.00 53 1012.7
20260508151605 57 238 5.0 10.0 0.00 0.00 0.00 52 1012.6
20260508150050 56 360 6.0 10.0 0.00 0.00 0.00 50 1012.7
20260508144549 55 209 6.0 11.0 0.00 0.00 0.00 52 1012.9
20260508143049 55 360 7.0 13.0 0.00 0.00 0.00 53 1012.9
20260508141544 55 360 8.0 13.0 0.00 0.00 0.00 49 1012.8
20260508140039 53 201 5.0 9.0 0.00 0.00 0.00 37 1012.7
20260508134536 52 213 5.0 8.0 0.00 0.00 0.00 34 1012.9
20260508133050 52 211 5.0 8.0 0.00 0.00 0.00 41 1012.7
20260508131534 52 218 5.0 8.0 0.00 0.00 0.00 42 1012.9
20260508130033 51 216 4.0 7.0 0.00 0.00 0.00 40 1013.0
20260508124531 51 219 4.0 6.0 0.00 0.00 0.00 41 1012.9
20260508123037 51 360 3.0 8.0 0.00 0.00 0.00 41 1013.0
20260508121530 51 226 5.0 10.0 0.00 0.00 0.00 42 1013.0
20260508120030 51 360 6.0 8.0 0.00 0.00 0.00 46 1013.0
20260508114528 51 219 6.0 9.0 0.00 0.00 0.00 51 1012.9
20260508113031 51 237 6.0 11.0 0.00 0.00 0.00 51 1012.7
20260508111528 51 212 6.0 11.0 0.00 0.00 0.00 52 1012.4
20260508110030 51 256 6.0 12.0 0.00 0.00 0.00 53 1012.4
20260508104525 51 245 6.0 11.0 0.00 0.00 0.00 52 1012.4
20260508103025 50 199 3.0 8.0 0.00 0.00 0.00 48 1012.4
20260508101524 50 229 2.0 7.0 0.00 0.00 0.00 48 1012.3
20260508100026 49 217 4.0 6.0 0.00 0.00 0.00 48 1012.2
20260508094523 49 220 5.0 7.0 0.00 0.00 0.00 50 1012.2
20260508093024 49 238 4.0 8.0 0.00 0.00 0.00 51 1012.3
20260508091526 49 360 5.0 7.0 0.00 0.00 0.00 52 1012.2
20260508090023 50 221 5.0 8.0 0.00 0.00 0.00 53 1012.4
20260508084518 50 225 5.0 9.0 0.00 0.00 0.00 54 1012.6
20260508083018 50 360 6.0 12.0 0.00 0.00 0.00 54 1012.4
20260508081522 50 234 7.0 13.0 0.00 0.00 0.00 54 1012.4
20260508080018 50 227 8.0 13.0 0.00 0.00 0.00 54 1012.5
20260508074516 50 360 8.0 14.0 0.00 0.00 0.00 54 1012.5
20260508073013 50 360 6.0 12.0 0.00 0.00 0.00 53 1012.6
20260508071517 50 213 6.0 10.0 0.00 0.00 0.00 54 1012.7
20260508070010 50 225 6.0 9.0 0.00 0.00 0.00 53 1012.8
20260508064510 50 213 4.0 10.0 0.00 0.00 0.00 50 1012.8
20260508063007 50 228 5.0 9.0 0.00 0.00 0.00 49 1012.9
20260508061515 50 360 4.0 9.0 0.00 0.00 0.00 44 1013.0
20260508060005 49 360 5.0 6.0 0.00 0.00 0.00 37 1013.1
20260508054503 48 360 3.0 5.0 0.00 0.00 0.00 30 1013.3
20260508053002 49 227 1.0 4.0 0.00 0.00 0.00 34 1013.3
20260508051600 49 360 1.0 6.0 0.00 0.00 0.00 40 1013.4
20260508050055 50 226 0.0 6.0 0.00 0.00 0.00 45 1013.4
20260508044604 51 360 4.0 5.0 0.00 0.00 0.00 49 1013.3
20260508043102 51 10 0.0 4.0 0.00 0.00 0.00 46 1013.5
20260508041554 51 311 3.0 10.0 0.00 0.00 0.00 45 1013.4
20260508040047 51 219 6.0 10.0 0.00 0.00 0.00 43 1013.0
20260508034552 51 360 5.0 8.0 0.00 0.00 0.00 35 1012.9
20260508033043 51 205 4.0 7.0 0.00 0.00 0.00 34 1012.9
20260508031543 50 360 5.0 7.0 0.00 0.00 0.00 31 1013.0
20260508030046 50 360 4.0 7.0 0.00 0.00 0.00 25 1013.0
20260508024545 50 360 3.0 7.0 0.00 0.00 0.00 25 1013.1
20260508023040 50 214 3.0 6.0 0.00 0.00 0.00 21 1013.3
20260508021539 50 232 2.0 5.0 0.00 0.00 0.00 23 1013.3
20260508020044 50 217 1.0 5.0 0.00 0.00 0.00 28 1013.2
20260508014537 51 215 2.0 5.0 0.00 0.00 0.00 29 1013.1
20260508013037 51 212 1.0 5.0 0.00 0.00 0.00 34 1013.1
20260508011542 51 218 1.0 4.0 0.00 0.00 0.00 41 1012.9
20260508010036 51 226 3.0 6.0 0.00 0.00 0.00 45 1013.0
20260508004534 51 229 2.0 6.0 0.00 0.00 0.00 48 1013.0
20260508003033 52 244 2.0 6.0 0.00 0.00 0.00 52 1013.3